TimeCDT,TemperatureF,Dew PointF,Humidity,Sea Level PressureIn,VisibilityMPH,Wind Direction,Wind SpeedMPH,Gust SpeedMPH,PrecipitationIn,Events,Conditions,WindDirDegrees,DateUTC
12:53 AM,57.0,39.9,53,30.02,10.0,North,15.0,-,N/A,,Scattered Clouds,10,2013-04-27 05:53:00
1:53 AM,54.0,42.1,64,30.01,10.0,North,15.0,-,N/A,,Mostly Cloudy,10,2013-04-27 06:53:00
2:53 AM,53.1,43.0,69,30.00,10.0,North,13.8,-,N/A,,Scattered Clouds,10,2013-04-27 07:53:00
3:53 AM,51.1,42.1,71,30.00,10.0,North,11.5,-,N/A,,Partly Cloudy,10,2013-04-27 08:53:00
4:53 AM,51.1,42.1,71,30.05,10.0,SE,3.5,-,N/A,,Partly Cloudy,130,2013-04-27 09:53:00
5:53 AM,45.0,39.9,82,30.08,10.0,NW,3.5,-,N/A,,Partly Cloudy,320,2013-04-27 10:53:00
6:53 AM,46.0,39.9,79,30.08,10.0,NNW,10.4,-,N/A,,Scattered Clouds,340,2013-04-27 11:53:00
7:53 AM,48.9,41.0,74,30.11,10.0,NNW,8.1,-,N/A,,Scattered Clouds,330,2013-04-27 12:53:00
8:53 AM,55.9,43.0,62,30.12,10.0,NW,8.1,-,N/A,,Scattered Clouds,320,2013-04-27 13:53:00
9:53 AM,61.0,43.0,52,30.12,10.0,North,6.9,-,N/A,,Scattered Clouds,350,2013-04-27 14:53:00
10:53 AM,66.0,43.0,43,30.12,10.0,Calm,Calm,-,N/A,,Scattered Clouds,0,2013-04-27 15:53:00
11:53 AM,69.1,39.0,33,30.11,10.0,Variable,5.8,-,N/A,,Scattered Clouds,0,2013-04-27 16:53:00
12:53 PM,73.9,36.0,25,30.09,10.0,ENE,5.8,-,N/A,,Scattered Clouds,70,2013-04-27 17:53:00
1:53 PM,77.0,34.0,21,30.05,10.0,East,9.2,-,N/A,,Scattered Clouds,100,2013-04-27 18:53:00
2:53 PM,77.0,28.9,17,30.03,10.0,SSE,3.5,-,N/A,,Partly Cloudy,150,2013-04-27 19:53:00
3:53 PM,78.1,28.9,17,29.99,10.0,ESE,5.8,-,N/A,,Partly Cloudy,110,2013-04-27 20:53:00
4:53 PM,80.1,28.9,15,29.96,10.0,Variable,3.5,-,N/A,,Partly Cloudy,0,2013-04-27 21:53:00
5:53 PM,80.1,28.0,15,29.96,10.0,East,5.8,-,N/A,,Partly Cloudy,100,2013-04-27 22:53:00
6:53 PM,79.0,28.0,15,29.95,10.0,ESE,5.8,-,N/A,,Partly Cloudy,110,2013-04-27 23:53:00
7:53 PM,75.9,28.9,18,29.94,10.0,SSE,8.1,-,N/A,,Partly Cloudy,160,2013-04-28 00:53:00
8:53 PM,71.1,28.9,21,29.94,10.0,SE,9.2,-,N/A,,Partly Cloudy,140,2013-04-28 01:53:00
9:53 PM,66.9,28.0,23,29.95,10.0,SE,10.4,-,N/A,,Clear,140,2013-04-28 02:53:00
10:53 PM,64.9,28.9,26,29.95,10.0,SE,12.7,-,N/A,,Clear,140,2013-04-28 03:53:00
11:53 PM,63.0,30.9,30,29.95,10.0,SSE,12.7,-,N/A,,Clear,150,2013-04-28 04:53:00